Albert Lea, MN

8:06 PM CST on February 21, 2017 (GMT -0600)
Albert Lea Municipal

Weather History for KAEL - December, 2013

Change the Weather History Date:

Thursday, December 5, 2013

  Actual Average Record
Temperature  
Mean Temperature 6 °F -  
Max Temperature 12 °F 32 °F 60 °F (2001)
Min Temperature 1 °F 19 °F -5 °F (2005)
Degree Days  
Heating Degree Days 58    
Moisture  
Dew Point 2 °F    
Average Humidity 77    
Maximum Humidity 85    
Minimum Humidity 67    
Precipitation  
Precipitation 0.00 in - - ()
Sea Level Pressure  
Sea Level Pressure 30.08 in    
Wind  
Wind Speed 13 mph (WNW)    
Max Wind Speed 21 mph    
Max Gust Speed 32 mph    
Visibility 9 miles    
Events Snow    
Averages and records for this station are not official NWS values.
T = Trace of Precipitation, MM = Missing Value Source: NWS Daily Summary

Daily Weather History Graph

Daily Weather History Graph

Search for Another Location

Airport or City:

Trip Planner

Search our weather history database for the weather conditions in past years. The results will help you decide how hot, cold, wet, or windy it might be!

Date:

Astronomy

Dec. 05, 2013 Rise Set
Actual Time 7:31 AM CST 4:36 PM CST
Civil Twilight 6:59 AM CST 5:09 PM CST
Nautical Twilight 6:23 AM CST 5:45 PM CST
Astronomical Twilight 5:48 AM CST 6:19 PM CST
Moon 9:49 AM CST (12/5) 8:01 PM CST (12/5)
Length of Visible Light 10h 09m
Length of Day
9h 05m
Waxing Crescent, 11% of the Moon is Illuminated
Dec 5
Waxing Crescent
Dec 9
First Quarter
Dec 17
Full
Dec 25
Last Quarter
Jan 1
New

Hourly Weather History & Observations

Time (CST) Temp. Windchill Dew Point Humidity Pressure Visibility Wind Dir Wind Speed Gust Speed Precip Events Conditions
12:13 AM 12.2 °F -3.1 °F 8.6 °F 85% 29.78 in 5.0 mi WNW 13.8 mph 25.3 mph N/A Snow Light Snow
12:32 AM 12.2 °F -1.0 °F 8.6 °F 85% 29.79 in 4.0 mi West 10.4 mph 19.6 mph N/A Snow Light Snow
12:52 AM 12.2 °F -3.1 °F 6.8 °F 79% 29.81 in 7.0 mi West 13.8 mph 24.2 mph N/A Snow Light Snow
1:13 AM 10.4 °F -4.8 °F 6.8 °F 85% 29.79 in 7.0 mi West 12.7 mph 26.5 mph N/A   Mostly Cloudy
1:32 AM 10.4 °F -7.7 °F 6.8 °F 85% 29.81 in 7.0 mi West 18.4 mph 29.9 mph N/A   Overcast
1:52 AM 10.4 °F -7.2 °F 6.8 °F 85% 29.84 in 10.0 mi West 17.3 mph 27.6 mph N/A   Overcast
2:12 AM 10.4 °F -6.0 °F 5.0 °F 79% 29.86 in 10.0 mi West 15.0 mph 27.6 mph N/A   Overcast
2:32 AM 10.4 °F -5.4 °F 5.0 °F 79% 29.86 in 7.0 mi West 13.8 mph 26.5 mph N/A   Overcast
2:53 AM 10.4 °F -6.0 °F 5.0 °F 79% 29.87 in 10.0 mi West 15.0 mph 25.3 mph N/A   Overcast
3:12 AM 8.6 °F -9.5 °F 3.2 °F 79% 29.88 in 10.0 mi West 17.3 mph 28.8 mph N/A   Overcast
3:32 AM 8.6 °F -9.5 °F 3.2 °F 79% 29.89 in 10.0 mi West 17.3 mph 24.2 mph N/A   Mostly Cloudy
3:53 AM 8.6 °F -11.0 °F 3.2 °F 79% 29.90 in 7.0 mi West 20.7 mph 28.8 mph N/A   Mostly Cloudy
4:12 AM 8.6 °F -7.7 °F 3.2 °F 79% 29.92 in 10.0 mi WNW 13.8 mph 27.6 mph N/A   Mostly Cloudy
4:32 AM 8.6 °F -8.9 °F 3.2 °F 79% 29.93 in 10.0 mi West 16.1 mph 23.0 mph N/A   Mostly Cloudy
4:53 AM 8.6 °F -8.9 °F 1.4 °F 73% 29.94 in 10.0 mi West 16.1 mph 29.9 mph N/A   Mostly Cloudy
5:12 AM 8.6 °F -8.3 °F 1.4 °F 73% 29.95 in 10.0 mi WNW 15.0 mph 29.9 mph N/A   Scattered Clouds
5:32 AM 6.8 °F -12.4 °F 1.4 °F 79% 29.95 in 10.0 mi West 18.4 mph 32.2 mph N/A   Scattered Clouds
5:53 AM 6.8 °F -10.7 °F 1.4 °F 79% 29.96 in 10.0 mi West 15.0 mph 24.2 mph N/A   Scattered Clouds
6:12 AM 6.8 °F -11.8 °F 1.4 °F 79% 29.97 in 10.0 mi WNW 17.3 mph 29.9 mph N/A   Clear
6:32 AM 6.8 °F -8.6 °F 1.4 °F 79% 29.99 in 10.0 mi West 11.5 mph 28.8 mph N/A   Clear
6:52 AM 6.8 °F -10.7 °F 1.4 °F 79% 29.99 in 10.0 mi West 15.0 mph 25.3 mph N/A   Clear
7:12 AM 6.8 °F -8.6 °F 1.4 °F 79% 30.01 in 10.0 mi West 11.5 mph 25.3 mph N/A   Scattered Clouds
7:33 AM 6.8 °F -12.4 °F 1.4 °F 79% 30.01 in 10.0 mi West 18.4 mph 24.2 mph N/A   Scattered Clouds
7:52 AM 6.8 °F -11.3 °F -0.4 °F 72% 30.02 in 10.0 mi WNW 16.1 mph 24.2 mph N/A   Scattered Clouds
8:12 AM 6.8 °F -8.6 °F 1.4 °F 79% 30.03 in 10.0 mi West 11.5 mph 25.3 mph N/A   Clear
8:33 AM 6.8 °F -13.4 °F -0.4 °F 72% 30.03 in 10.0 mi WNW 20.7 mph 28.8 mph N/A   Clear
8:52 AM 6.8 °F -11.3 °F 1.4 °F 79% 30.04 in 10.0 mi West 16.1 mph 24.2 mph N/A   Clear
9:13 AM 6.8 °F -12.4 °F -0.4 °F 72% 30.05 in 10.0 mi WNW 18.4 mph 26.5 mph N/A   Clear
9:32 AM 8.6 °F -8.3 °F 1.4 °F 73% 30.06 in 10.0 mi WNW 15.0 mph 28.8 mph N/A   Clear
9:52 AM 8.6 °F -7.7 °F 1.4 °F 73% 30.07 in 10.0 mi WNW 13.8 mph 24.2 mph N/A   Clear
10:13 AM 8.6 °F -7.0 °F 1.4 °F 73% 30.08 in 10.0 mi WNW 12.7 mph 24.2 mph N/A   Clear
10:32 AM 8.6 °F -8.9 °F 1.4 °F 73% 30.10 in 10.0 mi WNW 16.1 mph 24.2 mph N/A   Scattered Clouds
10:52 AM 10.4 °F -7.7 °F 1.4 °F 67% 30.10 in 10.0 mi WNW 18.4 mph 25.3 mph N/A   Clear
11:13 AM 10.4 °F -6.6 °F 1.4 °F 67% 30.10 in 10.0 mi West 16.1 mph 26.5 mph N/A   Clear
11:32 AM 10.4 °F -4.1 °F 3.2 °F 73% 30.10 in 10.0 mi West 11.5 mph 25.3 mph N/A   Clear
11:52 AM 10.4 °F -4.1 °F 3.2 °F 73% 30.10 in 10.0 mi West 11.5 mph 25.3 mph N/A   Clear
12:13 PM 10.4 °F -6.6 °F 1.4 °F 67% 30.11 in 10.0 mi WNW 16.1 mph 25.3 mph N/A   Clear
12:32 PM 10.4 °F -7.2 °F 1.4 °F 67% 30.12 in 10.0 mi WNW 17.3 mph 23.0 mph N/A   Clear
12:53 PM 12.2 °F -4.3 °F 3.2 °F 67% 30.11 in 10.0 mi WNW 16.1 mph 21.9 mph N/A   Scattered Clouds
1:12 PM 10.4 °F -4.1 °F 3.2 °F 73% 30.10 in 10.0 mi WNW 11.5 mph 23.0 mph N/A   Scattered Clouds
1:32 PM 10.4 °F -4.1 °F 3.2 °F 73% 30.10 in 10.0 mi West 11.5 mph 23.0 mph N/A   Clear
1:53 PM 10.4 °F -4.8 °F 3.2 °F 73% 30.10 in 10.0 mi West 12.7 mph 20.7 mph N/A   Scattered Clouds
2:12 PM 10.4 °F -2.4 °F 3.2 °F 73% 30.11 in 7.0 mi WNW 9.2 mph 20.7 mph N/A   Scattered Clouds
2:32 PM 12.2 °F -0.2 °F 3.2 °F 67% 30.12 in 10.0 mi WNW 9.2 mph 17.3 mph N/A   Mostly Cloudy
2:53 PM 10.4 °F -4.8 °F 3.2 °F 73% 30.12 in 7.0 mi West 12.7 mph 20.7 mph N/A   Mostly Cloudy
3:12 PM 10.4 °F -3.3 °F 3.2 °F 73% 30.12 in 10.0 mi WNW 10.4 mph 20.7 mph N/A   Scattered Clouds
3:32 PM 10.4 °F -3.3 °F 3.2 °F 73% 30.13 in 10.0 mi West 10.4 mph 21.9 mph N/A   Scattered Clouds
3:53 PM 10.4 °F -4.8 °F 3.2 °F 73% 30.14 in 10.0 mi WNW 12.7 mph 19.6 mph N/A   Scattered Clouds
4:12 PM 8.6 °F -5.5 °F 1.4 °F 73% 30.16 in 10.0 mi WNW 10.4 mph 18.4 mph N/A   Scattered Clouds
4:33 PM 8.6 °F -5.5 °F 1.4 °F 73% 30.17 in 7.0 mi WNW 10.4 mph - N/A   Mostly Cloudy
4:52 PM 6.8 °F -8.6 °F 1.4 °F 79% 30.17 in 5.0 mi WNW 11.5 mph 16.1 mph N/A   Haze
5:12 PM 6.8 °F -7.8 °F 1.4 °F 79% 30.18 in 10.0 mi WNW 10.4 mph 19.6 mph N/A   Scattered Clouds
5:33 PM 6.8 °F -6.9 °F -0.4 °F 72% 30.20 in 10.0 mi West 9.2 mph 18.4 mph N/A   Clear
5:52 PM 6.8 °F -4.8 °F 1.4 °F 79% 30.21 in 7.0 mi West 6.9 mph - N/A   Scattered Clouds
6:12 PM 6.8 °F -5.9 °F 1.4 °F 79% 30.22 in 5.0 mi West 8.1 mph 17.3 mph N/A Snow Light Snow
6:33 PM 6.8 °F -5.9 °F 1.4 °F 79% 30.25 in 10.0 mi West 8.1 mph 18.4 mph N/A   Overcast
6:52 PM 5.0 °F -6.9 °F -0.4 °F 78% 30.26 in 10.0 mi West 6.9 mph - N/A   Mostly Cloudy
7:12 PM 5.0 °F -9.1 °F -0.4 °F 78% 30.27 in 10.0 mi West 9.2 mph - N/A   Clear
7:33 PM 5.0 °F -8.1 °F -0.4 °F 78% 30.27 in 10.0 mi West 8.1 mph - N/A   Clear
7:52 PM 5.0 °F -6.9 °F -0.4 °F 78% 30.27 in 10.0 mi West 6.9 mph - N/A   Clear
8:12 PM 5.0 °F -6.9 °F -0.4 °F 78% 30.27 in 10.0 mi West 6.9 mph - N/A   Clear
8:32 PM 3.2 °F -7.8 °F -0.4 °F 85% 30.26 in 10.0 mi West 5.8 mph - N/A   Clear
8:53 PM 3.2 °F -7.8 °F -0.4 °F 85% 30.27 in 10.0 mi West 5.8 mph - N/A   Clear
9:12 PM 3.2 °F -9.1 °F -2.2 °F 78% 30.29 in 10.0 mi West 6.9 mph 16.1 mph N/A   Clear
9:32 PM 3.2 °F -13.1 °F -2.2 °F 78% 30.29 in 10.0 mi West 11.5 mph 17.3 mph N/A   Clear
9:53 PM 3.2 °F -10.3 °F -2.2 °F 78% 30.29 in 10.0 mi West 8.1 mph - N/A   Clear
10:12 PM 3.2 °F -13.1 °F -2.2 °F 78% 30.29 in 10.0 mi West 11.5 mph 17.3 mph N/A   Clear
10:32 PM 3.2 °F -14.6 °F -2.2 °F 78% 30.30 in 10.0 mi West 13.8 mph 19.6 mph N/A   Clear
10:53 PM 1.4 °F -8.3 °F -2.2 °F 85% 30.31 in 10.0 mi WNW 4.6 mph - N/A   Clear
11:12 PM 1.4 °F -13.5 °F -4.0 °F 78% 30.32 in 10.0 mi WNW 9.2 mph 16.1 mph N/A   Clear
11:32 PM 1.4 °F -14.5 °F -4.0 °F 78% 30.32 in 10.0 mi WNW 10.4 mph - N/A   Clear
11:53 PM 1.4 °F - -4.0 °F 78% 30.32 in 10.0 mi Calm Calm - N/A   Clear